Columbus, OH

1:40 PM EDT on October 18, 2017 (GMT -0400)
Port Columbus International

Weather History for KCMH - July, 2013

Change the Weather History Date:

Monday, July 22, 2013

  Actual Average Record
Temperature  
Mean Temperature 72 °F 75 °F  
Max Temperature 77 °F 85 °F 104 °F (1901)
Min Temperature 67 °F 66 °F 50 °F (1966)
Degree Days  
Heating Degree Days 0 0  
Month to date heating degree days 0 0  
Since 1 June heating degree days 6 19  
Since 1 July heating degree days 0 0  
Cooling Degree Days 7 10  
Month to date cooling degree days 278 220  
Year to date cooling degree days 677 518  
Since 1 June cooling degree days 516 436  
Growing Degree Days 22 (Base 50)    
Moisture  
Dew Point 70 °F    
Average Humidity 88    
Maximum Humidity 100    
Minimum Humidity 76    
Precipitation  
Precipitation 2.31 in 0.16 in 2.31 in (2013)
Month to date precipitation 6.25 3.46  
Year to date precipitation 23.18 23.04  
Snow  
Snow 0.00 in 0.00 in 0.00 in ()
Month to date snowfall 0.0 0.0  
Since 1 June snowfall 0.0 0.0  
Since 1 July snowfall 0.0 0.0  
Snow Depth 0.00 in    
Sea Level Pressure  
Sea Level Pressure 29.84 in    
Wind  
Wind Speed 4 mph (NE)    
Max Wind Speed 17 mph    
Max Gust Speed 25 mph    
Visibility 6 miles    
Events Rain    
T = Trace of Precipitation, MM = Missing Value Source: NWS Daily Summary

Daily Weather History Graph

Daily Weather History Graph

Search for Another Location

Airport or City:

Trip Planner

Search our weather history database for the weather conditions in past years. The results will help you decide how hot, cold, wet, or windy it might be!

Date:

Astronomy

Jul. 22, 2013 Rise Set
Actual Time 6:21 AM EDT 8:54 PM EDT
Civil Twilight 5:50 AM EDT 9:25 PM EDT
Nautical Twilight 5:11 AM EDT 10:04 PM EDT
Astronomical Twilight 4:27 AM EDT 10:47 PM EDT
Moon 8:39 PM EDT (7/22) 6:16 AM EDT (7/22)
Length of Visible Light 15h 35m
Length of Day
14h 33m
Full, 100% of the Moon is Illuminated
Jul 22
Full
Jul 22
Full
Jul 29
Last Quarter
Aug 6
New
Aug 14
First Quarter

Hourly Weather History & Observations

Time (EDT) Temp. Dew Point Humidity Pressure Visibility Wind Dir Wind Speed Gust Speed Precip Events Conditions
12:51 AM 75.0 °F 71.1 °F 87% 29.92 in 10.0 mi East 4.6 mph - N/A   Overcast
1:51 AM 75.0 °F 70.0 °F 84% 29.91 in 10.0 mi East 5.8 mph - N/A   Overcast
2:51 AM 73.9 °F 69.1 °F 85% 29.89 in 10.0 mi East 4.6 mph - N/A   Overcast
3:51 AM 73.9 °F 70.0 °F 87% 29.87 in 10.0 mi ESE 5.8 mph - N/A   Overcast
4:51 AM 73.0 °F 69.1 °F 87% 29.87 in 9.0 mi East 4.6 mph - N/A   Overcast
5:51 AM 73.0 °F 69.1 °F 87% 29.86 in 9.0 mi East 5.8 mph - N/A   Overcast
6:51 AM 73.0 °F 68.0 °F 84% 29.86 in 9.0 mi East 5.8 mph - N/A   Overcast
7:51 AM 73.0 °F 69.1 °F 87% 29.85 in 8.0 mi ESE 6.9 mph - 0.00 in   Overcast
8:51 AM 73.0 °F 70.0 °F 90% 29.85 in 6.0 mi ESE 8.1 mph - 0.00 in Rain Light Rain
9:27 AM 71.6 °F 71.6 °F 100% 29.87 in 4.0 mi ESE 6.9 mph - 0.03 in Rain Rain
9:39 AM 73.4 °F 71.6 °F 94% 29.86 in 4.0 mi ESE 8.1 mph - 0.09 in Rain Heavy Rain
9:51 AM 73.0 °F 72.0 °F 96% 29.86 in 4.0 mi East 3.5 mph - 0.13 in Rain Rain
9:57 AM 71.6 °F 71.6 °F 100% 29.87 in 2.5 mi NNW 4.6 mph - 0.02 in Rain Heavy Rain
10:02 AM 73.4 °F 71.6 °F 94% 29.88 in 1.0 mi NNW 9.2 mph - 0.06 in Rain Heavy Rain
10:09 AM 71.6 °F 71.6 °F 100% 29.87 in 0.5 mi NNW 13.8 mph - 0.27 in Rain Heavy Rain
10:20 AM 69.8 °F 69.8 °F 100% 29.87 in 1.0 mi ESE 13.8 mph 25.3 mph 0.84 in Rain Heavy Rain
10:37 AM 69.8 °F 66.2 °F 88% 29.88 in 1.0 mi Calm Calm - 1.39 in Rain Heavy Rain
10:51 AM 69.1 °F 66.0 °F 90% 29.86 in 3.0 mi East 3.5 mph - 1.58 in Rain Heavy Rain
10:58 AM 68.0 °F 66.2 °F 94% 29.87 in 1.8 mi NE 5.8 mph - 0.17 in Rain Heavy Rain
11:18 AM 68.0 °F 66.2 °F 94% 29.88 in 2.5 mi NE 3.5 mph - 0.38 in Rain Heavy Rain
11:35 AM 69.8 °F 69.8 °F 100% 29.87 in 3.0 mi NE 6.9 mph - 0.59 in Rain Rain
11:51 AM 70.0 °F 69.1 °F 97% 29.85 in 3.0 mi NNE 5.8 mph - 0.60 in Rain Light Rain
12:12 PM 71.6 °F 71.6 °F 100% 29.86 in 3.0 mi ENE 6.9 mph - 0.00 in   Mostly Cloudy
12:28 PM 71.6 °F 69.8 °F 94% 29.87 in 3.0 mi East 5.8 mph - 0.00 in   Mostly Cloudy
12:38 PM 71.6 °F 69.8 °F 94% 29.87 in 3.0 mi NE 3.5 mph - 0.00 in   Overcast
12:51 PM 72.0 °F 68.0 °F 87% 29.85 in 3.0 mi Calm Calm - 0.00 in   Overcast
1:07 PM 73.4 °F 69.8 °F 88% 29.86 in 3.0 mi Calm Calm - N/A   Overcast
1:36 PM 73.4 °F 69.8 °F 88% 29.85 in 3.0 mi West 4.6 mph - N/A   Overcast
1:51 PM 73.9 °F 69.1 °F 85% 29.83 in 3.0 mi West 6.9 mph - N/A   Overcast
2:23 PM 73.4 °F 69.8 °F 88% 29.83 in 3.0 mi West 4.6 mph - N/A   Overcast
2:44 PM 73.4 °F 69.8 °F 88% 29.84 in 3.0 mi WNW 4.6 mph - N/A   Overcast
2:51 PM 73.9 °F 69.1 °F 85% 29.82 in 3.0 mi West 4.6 mph - N/A   Overcast
3:16 PM 73.4 °F 69.8 °F 88% 29.83 in 3.0 mi WNW 3.5 mph - N/A   Overcast
3:51 PM 73.9 °F 69.1 °F 85% 29.81 in 3.0 mi West 5.8 mph - 0.00 in Rain Light Rain
4:51 PM 73.0 °F 69.1 °F 87% 29.79 in 8.0 mi North 4.6 mph - 0.00 in Rain Light Rain
5:51 PM 75.0 °F 70.0 °F 84% 29.78 in 10.0 mi NNE 3.5 mph - 0.00 in   Overcast
6:15 PM 73.4 °F 69.8 °F 88% 29.80 in 10.0 mi Calm Calm - N/A   Overcast
6:36 PM 75.2 °F 69.8 °F 83% 29.79 in 10.0 mi NNE 3.5 mph - N/A   Overcast
6:51 PM 73.9 °F 70.0 °F 87% 29.77 in 10.0 mi North 3.5 mph - N/A   Overcast
7:51 PM 77.0 °F 69.1 °F 76% 29.76 in 10.0 mi Calm Calm - N/A   Mostly Cloudy
8:51 PM 75.0 °F 69.1 °F 82% 29.77 in 10.0 mi West 3.5 mph - N/A   Scattered Clouds
9:51 PM 73.0 °F 69.1 °F 87% 29.78 in 10.0 mi Calm Calm - N/A   Scattered Clouds
10:41 PM 73.4 °F 71.6 °F 94% 29.80 in 8.0 mi Calm Calm - N/A   Overcast
10:51 PM 73.0 °F 70.0 °F 90% 29.79 in 8.0 mi Calm Calm - N/A   Mostly Cloudy
11:51 PM 73.0 °F 71.1 °F 93% 29.80 in 8.0 mi South 4.6 mph - N/A   Mostly Cloudy